Regional Weather Roundup
Issued by NWS Grand Forks, ND

Home | Current Version | Previous Version | Graphics & Text | Print | Product List | Glossary On
Versions: 1 2 3 4 5 6 7 8 9 10 11 12 13 14 15 16 17 18 19 20 21 22 23 24 25 26 27 28 29 30 31 32 33 34 35 36 37 38 39 40 41 42 43 44 45 46 47 48 49 50
096
ASUS43 KFGF 280210
RWRFGF
PRAIRIE TO PINES  WEATHER ROUNDUP
NATIONAL WEATHER SERVICE EASTERN NORTH DAKOTA/GRAND FORKS ND
900 PM CDT THU JUL 27 2017

 **SATELLITE DATA USED TO AUGMENT SKY COVER AT AUTOMATED STATIONS**
 *****  WEATHER ACROSS EASTERN NORTH DAKOTA  *****

CITY           SKY/WX    TMP DP  RH WIND       PRES   REMARKS
GRAND FORKS    FAIR      74  65  73 S3        30.04S
GRAND FRKS AFB FAIR      74  61  64 CALM      30.05F
DEVILS LAKE    FAIR      75  57  53 S6        30.07S
FARGO          FAIR      74  60  61 CALM      30.04F
WAHPETON ARPT  FAIR      72  59  64 CALM      30.05S
$$

 ***** WEATHER ACROSS CENTRAL AND WESTERN NORTH DAKOTA  *****

CITY           SKY/WX    TMP DP  RH WIND       PRES   REMARKS
BISMARCK       FAIR      76  62  62 E8        30.02S
MINOT          FAIR      78  57  48 SE8       30.02S
JAMESTOWN      FAIR      71  61  70 E6        30.06S
MINOT AFB      FAIR      76  60  56 SE10      30.01S
GARRISON         N/A     73  62  68 E7        30.02S
WILLISTON      FAIR      74  67  78 CALM      30.00F
DICKINSON      FAIR      70  65  84 S3        30.03R
HETTINGER      FAIR      72  54  53 SE6       30.05R
$$

 *****  OTHER AIRPORT OBSERVATIONS IN OUR AREA  *****

CITY           SKY/WX    TMP DP  RH WIND       PRES   REMARKS
WALHALLA       NOT AVBL
GRAFTON AIRPOR FAIR      75  63  64 CALM      30.06S
VALLEY CITY AR FAIR      73  61  64 E6        30.08S
CANDO          NOT AVBL
CAVALIER APRT  FAIR      77  66  69 CALM      30.04F
GWINNER        CLEAR     70  63  78 CALM      30.06S
SHEYENNE NWR     N/A     73  65  74 E2        29.95S
ROLLA            N/A     68  63  83 SE6       30.07F
 ***** THE ABOVE OBSERVATIONS ARE NON NWS ARE NOT QUALITY
       CONTROLLED AND MAY MIS-REPORT RAIN FOR SNOW...
$$

  *****  WEATHER ACROSS NORTHERN MINNESOTA  *****

CITY           SKY/WX    TMP DP  RH WIND       PRES   REMARKS
FLAG ISLAND    FAIR      75  63  64 CALM      30.05S
WARROAD        FAIR      70  66  88 CALM      30.07S
ROSEAU         FAIR      73  66  78 CALM      30.06S
HALLOCK        FAIR      73  64  73 CALM      30.04S
THF RVR FALLS  FAIR      73  62  68 W5        30.07S
BAUDETTE       FAIR      71  61  70 N3        30.06S
WASKISH        FAIR      70  63  78 CALM      30.07R
CROOKSTON      FAIR      75  64  69 CALM      30.05F
STEPHEN NDAWN    N/A     75  64  69 CALM        N/A
GREENBUSH NDAW   N/A     73  66  78 W1          N/A
$$
  *****  WEATHER ACROSS CENTRAL AND WEST MINNESOTA  *****

CITY           SKY/WX    TMP DP  RH WIND       PRES   REMARKS
FOSSTON        FAIR      68  59  73 CALM      30.08S
BEMIDJI        FAIR      69  56  65 CALM      30.07S
PARK RAPIDS    FAIR      75  59  57 NE6       30.07S
ELBOW LAKE     FAIR      73  64  73 CALM      30.06S
WADENA         FAIR      70  61  73 CALM      30.07S
DETROIT LAKES  FAIR      73  63  68 CALM      30.08F
MOORHEAD       FAIR      73  61  64 CALM      30.05F
FERGUS FALLS   FAIR      75  63  64 CALM      30.04F
MORRIS MN      FAIR      73  63  68 NE6       30.04F
STAPLES        FAIR      70  63  78 CALM      30.06S
$$
  *****  WEATHER ELSEWHERE ACROSS MINNESOTA  *****

CITY           SKY/WX    TMP DP  RH WIND       PRES   REMARKS
DULUTH         MOCLDY    63  58  83 SE8       30.08F
INTRNTL FALLS  FAIR      67  58  72 CALM      30.05F
ELY            FAIR      64  57  77 CALM      30.08F
CLOQUET        MOCLDY    66  54  63 E3        30.09S
WHEATON        FAIR      72  63  73 CALM      30.06F
BRAINERD       FAIR      71  63  75 CALM      30.06S
HIBBING        MOCLDY    68  54  60 SE14      30.08R
ALEXANDRIA     FAIR      72  63  73 N5        30.08S
SAINT CLOUD    FAIR      71  65  81 NE3       30.04S
MINNEAPOLIS    FAIR      78  58  49 NE6       30.02S
$$

  *****  WEATHER ACROSS SOUTH DAKOTA  *****

CITY           SKY/WX    TMP DP  RH WIND       PRES   REMARKS
SIOUX FALLS    FAIR      72  64  76 NE6       30.05S
BROOKINGS      FAIR      75  61  61 E6        30.06F
WATERTOWN      FAIR      73  58  59 NE5       30.06F
HURON          FAIR      76  63  64 E3        30.03F
SISSETON         N/A     73  63  70 E5        30.04F
ABERDEEN       FAIR      75  65  70 NE6       30.04F
MITCHELL       FAIR      75  65  70 E3        30.04S
PIERRE         FAIR      81  55  40 SE6       30.01S
MOBRIDGE       FAIR      76  61  59 E14       30.00F
RAPID CITY     MOCLDY    63  57  81 SE21      30.07F
$$

  *****  SOME WEATHER IN NEARBY STATES *****

CITY           SKY/WX    TMP DP  RH WIND       PRES   REMARKS
GLASGOW MT     FAIR      80  54  40 SE24G30   29.95R
GREAT FALLS MT FAIR      84  39  20 SW5       29.95F
CHEYENNE WY    MOCLDY    76  53  44 W6        30.17R THUNDER
SCOTTSBLUFF NE FAIR      73  65  75 E18       30.03S
OMAHA NE       FAIR      76  67  73 N5        30.00R
DES MOINES IA  FAIR      77  59  53 NE7       29.97S
DAVENPORT IA   FAIR      71  65  81 NE6       29.97R
CHICAGO IL     FAIR      72  56  57 N12       29.94F
EAU CLAIRE WI  FAIR      72  63  73 N5        30.01R
LA CROSSE WI   FAIR      78  64  61 N5        29.97S
$$

  *****  SOME NATIONAL WEATHER *****

CITY           SKY/WX    TMP DP  RH WIND       PRES   REMARKS
LA GUARDIA NY  CLOUDY    76  72  87 S5        29.88S
RALEIGH NC     TSTM      78  73  84 VRB6      29.96R
ATLANTA GA     MOCLDY    75  73  93 S6        29.99R
NEW ORLEANS LA FAIR      83  74  74 SW8       29.95F
OKLAHOMA CITY  MOCLDY    83  70  64 N5        29.89R
ALBUQUERQUE NM MOCLDY    77  56  48 S28G39    30.17R
SALT LAKE CITY FAIR      89  48  24 N9        30.04S
LOS ANGELES CA FAIR      71  64  78 W15       29.87S
BOISE ID       FAIR      91  42  18 N6        29.97S
SEATTLE WA     FAIR      69  55  60 W7        30.11F
$$

*** WEATHER ACROSS MANITOBA...SASKATCHEWAN AND ONTARIO ***
                ***ONTARIO***

CITY           SKY/WX    TMP DP  RH WIND       PRES   REMARKS
GERALDTON      PTCLDY    64  55  72 NE2       30.07S
THUNDER BAY    PTCLDY    63  57  82 CALM      30.06S
SIOUX LOOKOUT  PTCLDY    61  57  88 CALM      30.06S
TORONTO        PTCLDY    70  59  68 N12       29.92R
BIG TROUT LK   CLEAR     64  55  72 S2        30.00S
PICKLE LAKE    PTCLDY    73  48  40 CALM      30.06S
DRYDEN         CLEAR     73  55  53 W3        30.07S
KENORA         PTCLDY    73  57  56 W3        30.07F
$$
                *** MANITOBA***

CITY           SKY/WX    TMP DP  RH WIND       PRES   REMARKS
BRANDON        MOCLDY    73  59  60 S7        30.04F
DAUPHIN        CLEAR     73  68  83 S3        30.00S
ISLAND LAKE    NOT AVBL
PILOT MOUND      N/A     68  63  83 S5          N/A
THE PAS        PTCLDY    81  63  54 SE6       29.92S
THOMPSON       MOCLDY    81  57  44 S8        29.88S
WINNIPEG       PTCLDY    72  63  73 S7        30.04S
LYNN LAKE      PTCLDY    79  55  44 SW7       29.85F
CHURCHILL      MOCLDY    57  50  77 E17       29.89F
GILLAM         PTCLDY    77  61  57 S6        29.88F
$$
                ***SASKATCHEWAN***

CITY           SKY/WX    TMP DP  RH WIND       PRES   REMARKS
ESTEVAN        MOCLDY    73  61  64 SE6       30.01F
KINDERSLEY     PTCLDY    82  52  34 SE15G21   29.84F
LLOYDMINSTER   MOSUNNY   81  64  57 SE17G23   29.77F
PRINCE ALBERT  MOCLDY    77  68  73 SE7       29.91F
REGINA         MOCLDY    81  57  44 S20       29.96S
YORKTON        CLEAR     75  57  53 SE8       30.01S
N. BATTLEFORD  CLEAR     79  61  53 SE10      29.85F
LA RONGE       PTCLDY    81  54  39 S9        29.84F
SASKATOON      PTCLDY    84  54  34 SE14      29.90F
SWIFT CURRENT  CLEAR     82  57  42 E13       29.92S
$$
NOTE: THESE ARE AUTOMATED STATIONS WITH LIMITED QUALITY CONTROL
      "FAIR" INDICATES FEW OR NO CLOUDS BELOW 12,000 FEET WITH NO
      SIGNIFICANT WEATHER AND/OR OBSTRUCTIONS TO VISIBILITY.
      SKY/WX - SKY CONDITION AND SIGNIFICANT WEATHER.
      TMP - AIR TEMPERATURE.    DP   - DEWPOINT TEMPERATURE.
      RH  - RELATIVE HUMIDITY.  PRES - PRESSURE.
      HX  - HEAT INDEX.         WCI  - WIND CHILL INDEX.
$




USA.gov is the U.S. government's official web portal to all federal, state and local government web resources and services.